Regional Weather Roundup
Issued by NWS Burlington, VT

Home | Current Version | Previous Version | Text Only | Print | Product List | Glossary On
Versions: 1 2 3 4 5 6 7 8 9 10 11 12 13 14 15 16 17 18 19 20 21 22 23 24 25 26 27 28 29 30 31 32 33 34 35 36 37 38 39 40 41 42 43 44 45 46 47 48 49 50
000
ASUS41 KBTV 251330
RWRBTV
VERMONT REGIONAL WEATHER ROUNDUP
NATIONAL WEATHER SERVICE BURLINGTON VT
800 AM EST SUN FEB 25 2018

NOTE: "FAIR" INDICATES FEW OR NO CLOUDS BELOW 12,000 FEET WITH NO
SIGNIFICANT WEATHER AND/OR OBSTRUCTIONS TO VISIBILITY.

* THESE REPORTS ARE NOT UNDER NWS QUALITY CONTROL AND/OR DO NOT
  REPORT WEATHER SUCH AS PRECIPITATION AND FOG.

VTZ001>019-251400-
_____VERMONT_____


CITY           SKY/WX    TMP DP  RH WIND       PRES   REMARKS
BURLINGTON     LGT SNOW  33  27  78 SE14G21   30.05F VSB 1   WCI  23
MONTPELIER     LGT SNOW  27  23  85 S15G24    30.15F VSB 3/4 WCI  15
MORRISVILLE    LGT SNOW  30  23  75 S9G25     30.12F WCI  22
ST. JOHNSBURY*   N/A     28  26  92 MISG      30.14F
LYNDONVILLE*   FAIR      30  19  63 SE8       30.13F WCI  22
MIDDLEBURY*    LGT SNOW  32  24  73 S13G28    30.04F WCI  22
RUTLAND*       FLURRIES  30  25  81 SE30G39   30.05F WCI  15
SPRINGFIELD    MIX PCPN  29  28  96 CALM      30.20F FOG
HIGHGATE*      LGT SNOW  34  25  70 SE9       30.05F WCI  27
NEWPORT*       CLOUDY    30  20  65 SE14      30.10F WCI  20
BENNINGTON     RAIN      35  28  75 SE18G36   30.07S WCI  24
GALLUP MILLS*    N/A     28 N/A N/A MISG        N/A
UNION VILLAGE*   N/A     28 N/A N/A MISG        N/A
MT. MANSFIELD*   N/A     21 N/A N/A SE7G52      N/A  WCI  13

_____LAKE CHAMPLAIN_____


CITY           SKY/WX    TMP DP  RH WIND       PRES   REMARKS
BURTON ISLAND*   N/A     32  28  86 SW10        N/A  WCI  24
COLCHESTER RF*   N/A     32  28  86 S21         N/A  WCI  20

$$

NYZ007-026>031-035-052-083-087-251400-
_____NORTHERN NEW YORK_____


CITY           SKY/WX    TMP DP  RH WIND       PRES   REMARKS
PLATTSBURGH    FRZ RAIN  32  29  88 S15       30.03F WCI  22
SARANAC LAKE   FLURRIES  34  31  88 S16G29    29.85F WCI  24
MASSENA        FRZ RAIN  31  29  92 NE18      29.90F FOG     WCI  19
OGDENSBURG*    MIX PCPN  32  30  93 NE7       29.86S WCI  26
POTSDAM*       CLOUDY    30  30 100 E8        29.86F WCI  23
STARK FALLS*     N/A     34 N/A N/A SE18        N/A  WCI  23
WATERTOWN      HVY RAIN  42  39  89 S18G31    29.76F FOG
FT DRUM        LGT SNOW  36  33  88 SE29G41   29.74F FOG     WCI  24
ALBANY         RAIN      37  33  85 S10       30.07F FOG     WCI  30
GLENS FALLS    FRZ RAIN  32  31  96 CALM      30.08F FOG

$$
NHZ002-005-011-251400-
_____NEW HAMPSHIRE_____


CITY           SKY/WX    TMP DP  RH WIND       PRES   REMARKS
LEBANON        SNOW      30  26  85 VRB3      30.19F VSB 1/2
KEENE          LGT SNOW  32  28  86 NW3       30.21F FOG
MT WASHINGTON  CLOUDY    16   5  62 SE33G41     N/A  WCI  -5
PLYMOUTH       CLOUDY    31  19  58 E8        30.25F WCI  24
WHITEFIELD     CLOUDY    32  11  41 S20G26    30.14F WCI  20

$$

_____REGIONAL QUEBEC LOCATIONS_____


CITY           SKY/WX    TMP DP  RH WIND       PRES   REMARKS
MONTREAL       CLOUDY    27  18  69 NE16      30.04F WCI  14
QUEBEC CITY    CLOUDY    18   5  57 E17G26    30.30F WCI   2
SHERBROOKE     MOSUNNY   27  14  59 E8        30.14F WCI  18

_____REGIONAL ONTARIO LOCATIONS_____


CITY           SKY/WX    TMP DP  RH WIND       PRES   REMARKS
OTTAWA         FRZ RAIN  27  21  80 E22G31    29.88F FOG     WCI  12

______KEY______
VSB  - VISIBILITY IN MILES
WCI  - WIND CHILL INDEX
HX   - HEAT INDEX
$$
NNNN




USA.gov is the U.S. government's official web portal to all federal, state and local government web resources and services.